This is the latest recevied weather packets stored in our database for station/object N6SPP. If no packets are shown the sender has not sent any weather packets the latest 10 day(s).
| Time | Temp. | Humidity | Pressure | Rain* | Wind** | Luminosity | Snow |
|---|---|---|---|---|---|---|---|
| 1777381821 | 10.56° C | 82% | 1020.9 hPa | 0 mm | - | 2 W/m² | - |
| 1777381515 | 10.56° C | 82% | 1020.7 hPa | 0 mm | - | 1 W/m² | - |
| 1777381211 | 10.56° C | 81% | 1020.8 hPa | 0 mm | - | 0 W/m² | - |
| 1777380909 | 10° C | 81% | 1020.7 hPa | 0 mm | - | 0 W/m² | - |
| 1777380605 | 10.56° C | 81% | 1020.7 hPa | 0 mm | - | 0 W/m² | - |
| 1777380301 | 10° C | 81% | 1020.7 hPa | 0 mm | - | 0 W/m² | - |
| 1777379997 | 10.56° C | 81% | 1020.8 hPa | 0 mm | - | 0 W/m² | - |
| 1777379693 | 10.56° C | 81% | 1020.7 hPa | 0 mm | - | 0 W/m² | - |
| 1777379389 | 10° C | 81% | 1020.7 hPa | 0 mm | - | 0 W/m² | - |
| 1777379084 | 10.56° C | 80% | 1020.6 hPa | 0 mm | - | 0 W/m² | - |
| 1777378779 | 10.56° C | 78% | 1020.7 hPa | 0 mm | - | 0 W/m² | - |
| 1777378477 | 11.11° C | 78% | 1020.3 hPa | 0 mm | - | 0 W/m² | - |
| 1777378172 | 11.11° C | 78% | 1020.4 hPa | 0 mm | - | 0 W/m² | - |
| 1777377871 | 10.56° C | 77% | 1020.5 hPa | 0 mm | - | 0 W/m² | - |
| 1777377570 | 10° C | 80% | 1020.2 hPa | 0 mm | - | 0 W/m² | - |
| 1777377266 | 10° C | 79% | 1020.4 hPa | 0 mm | - | 0 W/m² | - |
| 1777376963 | 9.44° C | 77% | 1020.5 hPa | 0 mm | - | 0 W/m² | - |
| 1777376660 | 10° C | 76% | 1020.1 hPa | 0 mm | - | 0 W/m² | - |
| 1777376358 | 10.56° C | 74% | 1020.2 hPa | 0 mm | - | 0 W/m² | - |
| 1777376057 | 10.56° C | 73% | 1020.4 hPa | 0 mm | - | 0 W/m² | - |
| 1777375752 | 11.11° C | 72% | 1020.3 hPa | 0 mm | - | 0 W/m² | - |
| 1777375448 | 11.67° C | 70% | 1020.3 hPa | 0 mm | - | 0 W/m² | - |
| 1777375144 | 11.67° C | 69% | 1020.2 hPa | 0 mm | - | 0 W/m² | - |
| 1777374844 | 11.67° C | 69% | 1020 hPa | 0 mm | - | 0 W/m² | - |
| 1777374540 | 12.22° C | 68% | 1020 hPa | 0 mm | - | 0 W/m² | - |
* Rain latest hour (hover to see other rain measurements)
** Current wind speed in m/s (hover to see current wind gust speed)